Weather History for EHLW - November, 2012

Change the Weather History Date:

Sunday, November 11, 2012

  Actual Average Record
Temperature  
Mean Temperature 46 °F -  
Max Temperature 52 °F 44 °F 57 °F (2005)
Min Temperature 41 °F 36 °F 33 °F (2003)
Degree Days  
Heating Degree Days 18    
Moisture  
Dew Point 43 °F    
Average Humidity 90    
Maximum Humidity 100    
Minimum Humidity 70    
Precipitation  
Precipitation 0.00 in - - ()
Sea Level Pressure  
Sea Level Pressure 29.74 in    
Wind  
Wind Speed 10 mph ()    
Max Wind Speed 16 mph    
Max Gust Speed -    
Visibility 6.1 miles    
Events Rain    
Averages and records for this station are not official NWS values.
T = Trace of Precipitation, MM = Missing Value Source: Averaged Metar Reports

Daily Weather History Graph

Daily Weather History Graph

Search for Another Location

Airport or City:

Trip Planner

Search our weather history database for the weather conditions in past years. The results will help you decide how hot, cold, wet, or windy it might be!

Date:

Astronomy

Nov. 11, 2012 Rise Set
Actual Time 7:54 AM CET 4:46 PM CET
Civil Twilight 7:16 AM CET 5:24 PM CET
Nautical Twilight 6:34 AM CET 6:06 PM CET
Astronomical Twilight 5:53 AM CET 6:47 PM CET
Moon 4:29 AM CET (11/11) 3:16 PM CET (11/11)
Length of Visible Light 10h 08m
Length of Day
8h 52m
Waning Crescent, 9% of the Moon is Illuminated
Nov 11
Waning Crescent
Nov 13
New
Nov 20
First Quarter
Nov 28
Full
Dec 6
Last Quarter

Hourly Weather History & Observations

Time (CET) Temp. Windchill Dew Point Humidity Pressure Visibility Wind Dir Wind Speed Gust Speed Precip Events Conditions
12:03 AM 51.8 °F - 50.0 °F 94% 29.44 in 3.1 mi South 13.8 mph - N/A   Mostly Cloudy
12:07 AM 51.8 °F - 50.0 °F 94% 29.44 in 3.7 mi South 15.0 mph - N/A   Overcast
12:13 AM 51.8 °F - 50.0 °F 94% 29.44 in - South 16.1 mph - N/A Rain Rain
12:25 AM 51.8 °F - 50.0 °F 94% 29.44 in 3.1 mi South 15.0 mph - N/A Rain Light Rain
12:36 AM 51.8 °F - 50.0 °F 94% 29.44 in 3.7 mi South 12.7 mph - N/A   Light Drizzle
12:55 AM 50.0 °F - 50.0 °F 100% 29.44 in 4.3 mi South 11.5 mph - N/A   Overcast
1:00 AM 51 °F - 49 °F 91% 29.45 in 4 mi South 11.2 mph - - Rain Rain
1:05 AM 50.0 °F - 50.0 °F 100% 29.44 in 5.0 mi South 11.5 mph - N/A   Mostly Cloudy
1:09 AM 50.0 °F - 50.0 °F 100% 29.44 in 5.0 mi South 10.4 mph - N/A   Mostly Cloudy
1:17 AM 50.0 °F - 50.0 °F 100% 29.44 in 5.0 mi SSW 10.4 mph - N/A Rain Rain
1:18 AM 51.8 °F - 50.0 °F 94% 29.44 in 5.0 mi SSW 10.4 mph - N/A Rain Light Rain Showers
1:25 AM 51.8 °F - 50.0 °F 94% 29.44 in 5.0 mi SSW 12.7 mph - N/A Rain Light Rain Showers
1:38 AM 48.2 °F - 46.4 °F 93% 29.44 in 6.2 mi WNW 16.1 mph - N/A   Light Drizzle
1:44 AM 48.2 °F - 46.4 °F 93% 29.44 in 6.2 mi WNW 15.0 mph - N/A   Light Drizzle
1:55 AM 48.2 °F - 46.4 °F 93% 29.47 in 6.2 mi WNW 12.7 mph - N/A   Light Drizzle
1:59 AM 48.2 °F - 46.4 °F 93% 29.47 in 6.2 mi WNW 12.7 mph - N/A   Light Drizzle
2:05 AM 48.2 °F - 46.4 °F 93% 29.47 in 6.2 mi West 12.7 mph - N/A   Light Drizzle
2:08 AM 48.2 °F - 46.4 °F 93% 29.47 in 6.2 mi WNW 12.7 mph - N/A   Light Drizzle
2:15 AM 48.2 °F - 46.4 °F 93% 29.47 in 6.2 mi WNW 12.7 mph - N/A   Mostly Cloudy
2:25 AM 48.2 °F - 46.4 °F 93% 29.47 in 6.2 mi WNW 13.8 mph - N/A   Mostly Cloudy
2:26 AM 48.2 °F - 46.4 °F 93% 29.47 in 6.2 mi WNW 13.8 mph - N/A   Overcast
2:43 AM 48.2 °F - 46.4 °F 93% 29.50 in 6.2 mi West 11.5 mph - N/A   Light Drizzle
2:55 AM 48.2 °F - 46.4 °F 93% 29.50 in 6.2 mi WNW 11.5 mph - N/A Rain Light Rain
3:03 AM 48.2 °F - 44.6 °F 87% 29.50 in 6.2 mi WNW 10.4 mph - N/A   Mostly Cloudy
3:25 AM 48.2 °F - 44.6 °F 87% 29.53 in 6.2 mi West 9.2 mph - N/A   Overcast
3:55 AM 46.4 °F 42.4 °F 44.6 °F 93% 29.53 in 6.2 mi West 8.1 mph - N/A   Overcast
4:25 AM 46.4 °F 42.9 °F 42.8 °F 87% 29.56 in 6.2 mi WSW 6.9 mph - N/A   Unknown
4:55 AM 44.6 °F 40.2 °F 41.0 °F 87% 29.59 in 6.2 mi SW 8.1 mph - N/A   Unknown
5:25 AM 44.6 °F 40.7 °F 41.0 °F 87% 29.59 in 6.2 mi SSW 6.9 mph - N/A   Unknown
5:38 AM 44.6 °F 40.7 °F 42.8 °F 93% 29.62 in 6.2 mi SSW 6.9 mph - N/A   Scattered Clouds
5:45 AM 44.6 °F 40.7 °F 42.8 °F 93% 29.62 in 6.2 mi SSW 6.9 mph - N/A   Partly Cloudy
5:55 AM 42.8 °F 38.0 °F 41.0 °F 93% 29.62 in 6.2 mi SSW 8.1 mph - N/A   Partly Cloudy
5:57 AM 42.8 °F 38.0 °F 41.0 °F 93% 29.62 in 6.2 mi SSW 8.1 mph - N/A   Scattered Clouds
6:07 AM 42.8 °F 38.6 °F 41.0 °F 93% 29.62 in 6.2 mi SSW 6.9 mph - N/A   Partly Cloudy
6:14 AM 42.8 °F 38.6 °F 41.0 °F 93% 29.62 in 6.2 mi SSW 6.9 mph - N/A   Scattered Clouds
6:17 AM 42.8 °F 38.6 °F 41.0 °F 93% 29.65 in 6.2 mi SSW 6.9 mph - N/A   Mostly Cloudy
6:25 AM 42.8 °F 38.6 °F 41.0 °F 93% 29.65 in 6.2 mi SSW 6.9 mph - N/A   Mostly Cloudy
6:55 AM 42.8 °F 38.6 °F 41.0 °F 93% 29.65 in 6.2 mi South 6.9 mph - N/A   Unknown
7:00 AM 42 °F - 40 °F 92% 29.68 in 10 mi SSW 6.7 mph - -   Partly Cloudy
7:25 AM 42.8 °F 38.6 °F 41.0 °F 93% 29.68 in 6.2 mi SSW 6.9 mph - N/A   Unknown
7:55 AM 42.8 °F 38.6 °F 41.0 °F 93% 29.68 in 6.2 mi SW 6.9 mph - N/A   Unknown
8:25 AM 42.8 °F 39.3 °F 41.0 °F 93% 29.71 in 6.2 mi SSW 5.8 mph - N/A   Partly Cloudy
8:55 AM 42.8 °F 40.1 °F 41.0 °F 93% 29.71 in 6.2 mi SSW 4.6 mph - N/A   Partly Cloudy
9:25 AM 44.6 °F 41.4 °F 42.8 °F 93% 29.74 in 6.2 mi SSW 5.8 mph - N/A   Partly Cloudy
9:55 AM 46.4 °F 42.9 °F 44.6 °F 93% 29.74 in 6.2 mi SSW 6.9 mph - N/A   Mostly Cloudy
10:25 AM 48.2 °F - 46.4 °F 93% 29.77 in 6.2 mi SSW 5.8 mph - N/A   Partly Cloudy
10:55 AM 48.2 °F - 46.4 °F 93% 29.77 in 6.2 mi SSW 8.1 mph - N/A   Partly Cloudy
11:06 AM 50.0 °F - 46.4 °F 87% 29.77 in 4.3 mi SSW 8.1 mph - N/A   Mist
11:10 AM 50.0 °F - 46.4 °F 87% 29.77 in 6.2 mi SSW 8.1 mph - N/A   Unknown
11:25 AM 50.0 °F - 46.4 °F 87% 29.77 in 6.2 mi SSW 8.1 mph - N/A   Unknown
11:55 AM 51.8 °F - 44.6 °F 76% 29.77 in 6.2 mi WSW 6.9 mph - N/A   Unknown
12:25 PM 51.8 °F - 44.6 °F 76% 29.80 in 6.2 mi SW 9.2 mph - N/A   Unknown
12:55 PM 51.8 °F - 44.6 °F 76% 29.80 in 6.2 mi SW 10.4 mph - N/A   Unknown
1:00 PM 52 °F - 45 °F 70% 29.81 in 19 mi SW 8.9 mph - -   Partly Cloudy
1:25 PM 51.8 °F - 44.6 °F 76% 29.80 in 6.2 mi WSW 9.2 mph - N/A   Unknown
1:55 PM 51.8 °F - 44.6 °F 76% 29.80 in 6.2 mi WSW 10.4 mph - N/A   Scattered Clouds
2:25 PM 51.8 °F - 44.6 °F 76% 29.83 in 6.2 mi SW 10.4 mph - N/A   Partly Cloudy
2:55 PM 50.0 °F - 44.6 °F 82% 29.83 in 6.2 mi SW 11.5 mph - N/A   Partly Cloudy
3:25 PM 50.0 °F - 44.6 °F 82% 29.86 in 6.2 mi SW 9.2 mph - N/A   Mostly Cloudy
3:26 PM 50.0 °F - 44.6 °F 82% 29.86 in 6.2 mi SW 9.2 mph - N/A   Mostly Cloudy
3:38 PM 50.0 °F - 44.6 °F 82% 29.86 in 6.2 mi WSW 9.2 mph - N/A   Partly Cloudy
3:55 PM 50.0 °F - 42.8 °F 76% 29.86 in 6.2 mi WSW 9.2 mph - N/A   Unknown
4:14 PM 48.2 °F - 42.8 °F 82% 29.86 in 2.5 mi WSW 9.2 mph - N/A   Haze
4:18 PM 48.2 °F - 42.8 °F 82% 29.89 in 6.2 mi WSW 9.2 mph - N/A   Partly Cloudy
4:25 PM 48.2 °F - 42.8 °F 82% 29.89 in 6.2 mi WSW 8.1 mph - N/A   Partly Cloudy
4:38 PM 48.2 °F - 42.8 °F 82% 29.89 in 6.2 mi West 8.1 mph - N/A   Unknown
4:55 PM 46.4 °F 42.9 °F 42.8 °F 87% 29.89 in 6.2 mi WSW 6.9 mph - N/A   Unknown
5:25 PM 46.4 °F 43.5 °F 42.8 °F 87% 29.89 in 6.2 mi WSW 5.8 mph - N/A   Overcast
5:49 PM 44.6 °F 40.7 °F 41.0 °F 87% 29.92 in 3.7 mi WSW 6.9 mph - N/A   Mist
5:55 PM 44.6 °F 40.7 °F 41.0 °F 87% 29.92 in 6.2 mi WSW 6.9 mph - N/A   Partly Cloudy
6:08 PM 44.6 °F 41.4 °F 41.0 °F 87% 29.92 in 6.2 mi SW 5.8 mph - N/A   Mostly Cloudy
6:25 PM 44.6 °F 41.4 °F 41.0 °F 87% 29.92 in 6.2 mi SW 5.8 mph - N/A   Mostly Cloudy
6:55 PM 42.8 °F 38.6 °F 41.0 °F 93% 29.92 in 6.2 mi SW 6.9 mph - N/A   Scattered Clouds
7:00 PM 43 °F - 40 °F 86% 29.94 in 12 mi SW 6.7 mph - -   Partly Cloudy
7:25 PM 42.8 °F 39.3 °F 39.2 °F 87% 29.95 in 6.2 mi SW 5.8 mph - N/A   Mostly Cloudy
7:55 PM 42.8 °F 38.6 °F 41.0 °F 93% 29.95 in 6.2 mi SW 6.9 mph - N/A   Overcast
8:25 PM 42.8 °F 38.0 °F 41.0 °F 93% 29.98 in 6.2 mi SW 8.1 mph - N/A   Overcast
8:26 PM 42.8 °F 38.6 °F 41.0 °F 93% 29.98 in 6.2 mi SW 6.9 mph - N/A   Overcast
8:38 PM 42.8 °F 39.3 °F 41.0 °F 93% 29.98 in 6.2 mi SW 5.8 mph - N/A   Mostly Cloudy
8:55 PM 42.8 °F 38.0 °F 39.2 °F 87% 29.98 in 6.2 mi SSW 8.1 mph - N/A   Mostly Cloudy
9:04 PM 42.8 °F 38.6 °F 39.2 °F 87% 29.98 in 3.7 mi SSW 6.9 mph - N/A   Partly Cloudy
9:08 PM 42.8 °F 38.0 °F 39.2 °F 87% 29.98 in 6.2 mi SSW 8.1 mph - N/A   Unknown
9:18 PM 41.0 °F 35.8 °F 39.2 °F 93% 29.98 in 6.2 mi SW 8.1 mph - N/A   Mostly Cloudy
9:25 PM 41.0 °F 35.8 °F 39.2 °F 93% 29.98 in 6.2 mi SW 8.1 mph - N/A   Scattered Clouds
9:55 PM 41.0 °F 36.4 °F 39.2 °F 93% 30.01 in 6.2 mi SSW 6.9 mph - N/A   Unknown
10:25 PM 41.0 °F 35.2 °F 39.2 °F 93% 30.01 in 6.2 mi SSW 9.2 mph - N/A   Partly Cloudy
10:35 PM 41.0 °F 35.2 °F 39.2 °F 93% 30.01 in 6.2 mi SSW 9.2 mph - N/A   Mostly Cloudy
10:40 PM 42.8 °F 37.5 °F 39.2 °F 87% 30.01 in 6.2 mi SSW 9.2 mph - N/A   Mostly Cloudy
10:55 PM 41.0 °F 36.4 °F 39.2 °F 93% 30.01 in 6.2 mi SSW 6.9 mph - N/A   Unknown
11:25 PM 41.0 °F 36.4 °F 39.2 °F 93% 30.01 in 6.2 mi SSW 6.9 mph - N/A   Unknown
11:41 PM 41.0 °F 36.4 °F 39.2 °F 93% 30.01 in 6.2 mi SSW 6.9 mph - N/A   Scattered Clouds
11:45 PM 41.0 °F 36.4 °F 39.2 °F 93% 30.04 in 6.2 mi SSW 6.9 mph - N/A   Mostly Cloudy
11:46 PM 41.0 °F 36.4 °F 39.2 °F 93% 30.04 in 6.2 mi SSW 6.9 mph - N/A   Mostly Cloudy
11:55 PM 41.0 °F 35.8 °F 39.2 °F 93% 30.04 in 6.2 mi SSW 8.1 mph - N/A   Mostly Cloudy
11:56 PM 41.0 °F 35.8 °F 39.2 °F 93% 30.04 in 6.2 mi SSW 8.1 mph - N/A   Mostly Cloudy